Location: Newark
(46.7000°N, 60.6000°W)
Time: 06:02:30
(UTC+00:00)

Transit 2A Rocket - Pass Details

Date: 27 October 2020
Orbit: 588 x 914 km, 66.7° (Epoch: 27 November)

Event Time Altitude Azimuth Distance (km) Brightness Sun altitude
Rises 14:46:52 0° 231° (SW) 3,539 8.7 28.8°
Reaches altitude 10° 14:49:30 10° 236° (SW) 2,597 8.1 28.9°
Maximum altitude 14:55:23 49° 311° (NW) 1,140 5.9 29.1°
Drops below altitude 10° 15:01:04 10° 26° (NNE) 2,502 7.3 29.4°
Sets 15:03:34 0° 32° (NNE) 3,399 8.0 29.5°
